User: anonymous   Login
Location: Lugrin
(46.4033°N, 6.6674°E)
Time: 01:28:42
(UTC+00:00)
Language:

Tsikada Rocket - Orbit

View from above orbital plane
View from above orbital plane
View from above satellite
View from above satellite

Ground track
Ground track

The orbit data is extracted from the following two-line orbital elements,

1 23466U 95002D   21136.53590611 -.00000020  00000-0 -37097-4 0  9994
2 23466  82.9225 285.2322 0034832 175.6442 253.6079 13.74437572319372
Epoch (UTC): 16 May 2021 12:51:42
Eccentricity: 0.0034832
inclination: 82.9225°
perigee height: 958 km
apogee height: 1009 km
right ascension of ascending node: 285.2322°
argument of perigee: 175.6442°
revolutions per day: 13.74437572
mean anomaly at epoch: 253.6079°
orbit number at epoch: 31937

The dashed part of the orbit path shows where the satellite is in the earth's shadow,  

DLR